Skip Page Navigation
NASA JPL Caltech
NASA Logo - Jet Propulsion Laboratory + View the NASA Portal
+ Center for Near-Earth Object Studies
JPL Home Earth Solar System Stars & Galaxies Technology
JPL Solar System Dynamics
BODIES ORBITS EPHEMERIDES TOOLS PHYSICAL DATA DISCOVERY FAQ SITE MAP
JPL Small-Body Database Browser
Search: [ help ]  
434571 (2005 UM19)
Classification: Main-belt Asteroid          SPK-ID: 2434571
Ephemeris | Orbit Diagram | Orbital Elements | Mission Design | Physical Parameters | Discovery Circumstances | Close-Approach Data ]

[ hide orbit diagram ]

For accurate long-term ephemerides, please instead use our Horizons system.This orbit viewer was implemented using two-body methods, and hence should not be used for determining accurate long-term trajectories (over several years or decades) or planetary encounter circumstances.


[ revert to old Java-based viewer ]

Orbital Elements at Epoch 2459000.5 (2020-May-31.0) TDB
Reference: JPL 16 (heliocentric ecliptic J2000)
 Element Value Uncertainty (1-sigma)   Units 
e .1819988386302534 1.111e-07  
a 3.19393702060557 4.951e-08 au
q 2.612644192197185 3.7089e-07 au
i 27.54916044577624 1.0224e-05 deg
node 216.3418296740462 1.514e-05 deg
peri 161.3555074159079 2.8256e-05 deg
M 212.9013097626249 2.9094e-05 deg
tp 2459852.411055660376
(2022-Sep-29.91105566)
0.00018348 TDB
period 2084.913057640615
5.71
4.8478e-05
1.327e-07
d
yr
n .1726690706265674 4.0149e-09 deg/d
Q 3.775229849013956 5.852e-08 au
  Orbit Determination Parameters
   # obs. used (total)      145  
   data-arc span      5314 days (14.55 yr)  
   first obs. used      2005-10-10  
   last obs. used      2020-04-28  
   planetary ephem.      DE431  
   SB-pert. ephem.      SB431-N16  
   condition code      0  
   norm. resid. RMS      .69294  
   source      ORB  
   producer      Otto Matic  
   solution date      2020-May-22 03:26:26  

Additional Information
 Earth MOID = 1.62721 au 
 Jupiter MOID = 1.70976 au 
 T_jup = 2.995 
[ show covariance matrix ]

Ephemeris | Orbit Diagram | Orbital Elements | Mission Design | Physical Parameters | Discovery Circumstances | Close-Approach Data ]

Physical Parameter Table
Parameter Symbol Value Units Sigma Reference Notes
absolute magnitude H 15.8   n/a MPO472395  

434571 (2005 UM19)          Discovered 2005-Oct-22 by CSS at Catalina
Reference: Last Updated: 2015-06-04

[ show close-approach data ]
Alternate Designations
 2005 UM19 = 2010 JQ24 
Ephemeris | Orbit Diagram | Orbital Elements | Mission Design | Physical Parameters | Discovery Circumstances | Close-Approach Data ]
ABOUT SSD CREDITS/AWARDS PRIVACY/COPYRIGHT GLOSSARY LINKS
FirstGov 2020-Aug-08 13:18 UT
(server date/time)  
NASA Home Page
Site Manager:   Ryan S. Park
Webmaster  Alan B. Chamberlin